Zurück zum Katalog

STARLINK-36270

AktivKommunikationVLEO
NORAD 67200·PAYLOAD·🇺🇸 United States

Gestartet Dec 17, 2025 von Vandenberg Space Force Base

Loading…

Nächste Überflüge (nächste 24 Stunden)

TLE

AktuellSource: CelesTrak SupGP

Epoche: Sep 15, 2026, 03:21 UTC

1 67200C 25304J   26258.14006944 -.00035029  00000+0 -29359-2 0  2588
2 67200  70.0013  56.7439 0002504 270.6939  89.9074 14.98344704    11

Verfolge STARLINK-36270 in Echtzeit mit AllMySat

Download on the App Store